INMARSAT 4-F2

Last updated on Jan. 29, 2020, 4:37 a.m. UTC

1 28899U 05044A   20028.87104914  .00000009  00000-0  00000-0 0  9994
2 28899   2.9655  28.7791 0002623 283.0741 193.2002  1.00272916 52144
UTC
Height (km)
Latitude
Longitude
Inclination
Orbital Period
UTC large
Height (km)
Speed (km/s)
/
Latitude / Longitude
Inclination (degrees)
Orbital Period (minutes)
Azimuth
Elevation
Range (km)
Doppler Factor
iOS Compass Heading
iOS Angle

Next 30 passes for location: Hong Kong

Rise time Rise Azimuth (degrees) Set time Set Azimuth (degrees) Duration Max altitude (degrees)

No matching passes for this satellites